LFLS

Grenoble

Airport
ICAO code
LFLS
Summary
ICAO Region
EUR
ICAO Territory
Location

Grenoble, Rhone-Alpes,

Coordinates
45° 21' 47" N , 5° 19' 43" E
KCC
Metar
LFLS 221930Z AUTO 16003KT 9999 -RA FEW052/// BKN088/// OVC120/// ///TCU 14/13 Q1017

Description

International airport serving resort of Grenoble.

Climatology

Humid “subtropical” climate (Köppen climate classification Cfa) - characterized by hot, humid summers and cool winters. Significant amounts of precipitation occur in all seasons in most areas. Winter rainfall (and sometimes snowfall) is associated with large storms that the westerlies steer from west to east. Most summer rainfall occurs during thunderstorms.

Runways

Designator Length Width Surface Rops
9/27 3050 45 ASP Yes/Yes

Airport map

Aerial View

Airport accidents

SKYbrary Partners:

Safety knowledge contributed by: